Location: Aix-en-Ergny
(50.5839°N, 1.9996°E)
Time: 10:02:27
(UTC+00:00)

Cosmos 44 Rocket - Pass Details

Date: 23 October 2019
Orbit: 657 x 732 km, 65.1° (Epoch: 18 November)

Event Time Altitude Azimuth Distance (km) Brightness Sun altitude
Exits shadow 04:42:08 33° 268° (W) 1,111 3.8 -17.3°
Maximum altitude 04:43:06 37° 241° (WSW) 1,031 3.7 -17.1°
Drops below altitude 10° 04:47:24 10° 174° (S) 2,066 5.8 -16.5°
Sets 04:49:49 0° 166° (SSE) 2,973 6.7 -16.1°
